Clarion, IA

5:29 PM CST on November 11, 2019 (GMT -0600)
Clarion Municipal

Weather History for KCAV - September, 2019

Change the Weather History Date:

Sunday, September 22, 2019

  Actual Average Record
Temperature  
Mean Temperature 58 °F -  
Max Temperature 66 °F 69 °F 93 °F (2017)
Min Temperature 50 °F 43 °F 25 °F (1974)
Degree Days  
Heating Degree Days 7    
Growing Degree Days 8 (Base 50)    
Moisture  
Dew Point 58 °F    
Average Humidity 95    
Maximum Humidity 100    
Minimum Humidity 83    
Precipitation  
Precipitation 0.40 in - - ()
Sea Level Pressure  
Sea Level Pressure 29.92 in    
Wind  
Wind Speed 6 mph (NNW)    
Max Wind Speed 13 mph    
Max Gust Speed 16 mph    
Visibility 8 miles    
Events      
Averages and records for this station are not official NWS values.
T = Trace of Precipitation, MM = Missing Value Source: NWS Daily Summary

Daily Weather History Graph

Daily Weather History Graph

Search for Another Location

Airport or City:

Astronomy

Sep. 22, 2019 Rise Set
Actual Time 7:02 AM CDT 7:12 PM CDT
Civil Twilight 6:33 AM CDT 7:40 PM CDT
Nautical Twilight 6:00 AM CDT 8:13 PM CDT
Astronomical Twilight 5:26 AM CDT 8:47 PM CDT
Moon No Moon Rise 3:17 PM CDT (9/22)
Length of Visible Light 13h 06m
Length of Day
12h 10m
Last Quarter, 44% of the Moon is Illuminated
Sep 22
Last Quarter
Sep 28
New
Oct 5
First Quarter
Oct 13
Full
Oct 21
Last Quarter

Hourly Weather History & Observations

Time (CDT) Temp. Dew Point Humidity Pressure Visibility Wind Dir Wind Speed Gust Speed Precip Events Conditions
10:15 AM - - N/A% 29.91 in - North - - N/A   Unknown
10:35 AM 62.6 °F 62.6 °F 100% 29.92 in 2.0 mi NNW 10.4 mph - N/A   Mist
10:55 AM 62.6 °F 62.6 °F 100% 29.92 in 2.0 mi NW 6.9 mph - 0.13 in   Overcast
11:15 AM 62.6 °F 62.6 °F 100% 29.89 in 2.5 mi ENE 6.9 mph - N/A   Mostly Cloudy
11:35 AM 62.6 °F 62.6 °F 100% 29.86 in 9.0 mi ENE 8.1 mph 13.8 mph N/A   Clear
11:55 AM 62.6 °F 60.8 °F 94% 29.87 in 10.0 mi East 5.8 mph - 0.06 in   Clear
12:15 PM 62.6 °F 62.6 °F 100% 29.85 in 10.0 mi East 8.1 mph - N/A   Partly Cloudy
12:35 PM 64.4 °F 62.6 °F 94% 29.85 in 10.0 mi Variable 5.8 mph 11.5 mph N/A   Partly Cloudy
12:55 PM 66.2 °F 62.6 °F 88% 29.86 in 10.0 mi Variable 3.5 mph - N/A   Scattered Clouds
1:15 PM 66.2 °F 60.8 °F 83% 29.87 in 10.0 mi SE 3.5 mph - N/A   Mostly Cloudy
1:35 PM 66.2 °F 60.8 °F 83% 29.87 in 10.0 mi Variable 4.6 mph - N/A   Overcast
1:55 PM 66.2 °F 60.8 °F 83% 29.87 in 10.0 mi West 4.6 mph - N/A   Overcast
2:15 PM 66.2 °F 60.8 °F 83% 29.87 in 10.0 mi West 4.6 mph - N/A   Overcast
2:35 PM 66.2 °F 60.8 °F 83% 29.89 in 10.0 mi WNW 9.2 mph - N/A   Overcast
2:55 PM 64.4 °F 60.8 °F 88% 29.89 in 5.0 mi West 5.8 mph - N/A   Mostly Cloudy
3:15 PM 64.4 °F 60.8 °F 88% 29.90 in 8.0 mi West 4.6 mph - N/A   Mostly Cloudy
3:35 PM 62.6 °F 59.0 °F 88% 29.89 in 1.5 mi Calm Calm - N/A   Mostly Cloudy
3:55 PM 60.8 °F 59.0 °F 94% 29.90 in 2.5 mi SW 3.5 mph - 0.09 in   Scattered Clouds
4:15 PM 60.8 °F 60.8 °F 100% 29.90 in 2.0 mi North 9.2 mph 16.1 mph N/A   Mostly Cloudy
4:35 PM 60.8 °F 59.0 °F 94% 29.90 in 4.0 mi NNW 12.7 mph - N/A   Mostly Cloudy
4:55 PM 59.0 °F 59.0 °F 100% 29.91 in 4.0 mi North 8.1 mph - 0.07 in   Mostly Cloudy
5:15 PM 59.0 °F 59.0 °F 100% 29.91 in 6.0 mi North 5.8 mph - N/A   Mostly Cloudy
5:35 PM 59.0 °F 57.2 °F 94% 29.92 in 10.0 mi North 4.6 mph - N/A   Overcast
5:55 PM 60.8 °F 59.0 °F 94% 29.91 in - North 4.6 mph - 0.05 in   Unknown
6:15 PM 59.0 °F 59.0 °F 100% 29.92 in 10.0 mi North 4.6 mph - N/A   Mostly Cloudy
6:35 PM 60.8 °F 59.0 °F 94% 29.93 in 10.0 mi NNW 5.8 mph - N/A   Mostly Cloudy
6:55 PM 59.0 °F 57.2 °F 94% 29.93 in 10.0 mi NW 4.6 mph - N/A   Partly Cloudy
7:15 PM 59.0 °F 57.2 °F 94% 29.94 in 10.0 mi NNW 3.5 mph - N/A   Clear
7:35 PM 57.2 °F 57.2 °F 100% 29.94 in 10.0 mi Calm Calm - N/A   Clear
7:55 PM 55.4 °F 55.4 °F 100% 29.95 in 10.0 mi Calm Calm - N/A   Clear
8:15 PM 55.4 °F 55.4 °F 100% 29.95 in 10.0 mi Calm Calm - N/A   Clear
8:35 PM 53.6 °F 53.6 °F 100% 29.96 in 10.0 mi NW 3.5 mph - N/A   Partly Cloudy
8:55 PM 53.6 °F 53.6 °F 100% 29.97 in 10.0 mi Calm Calm - N/A   Clear
9:15 PM 53.6 °F 53.6 °F 100% 29.97 in 2.0 mi Calm Calm - N/A   Clear
9:35 PM 51.8 °F 51.8 °F 100% 29.98 in 1.8 mi West 3.5 mph - N/A   Clear
9:55 PM 51.8 °F 51.8 °F 100% 29.99 in 6.0 mi Calm Calm - N/A   Clear
10:15 PM 51.8 °F 51.8 °F 100% 29.99 in 6.0 mi Calm Calm - N/A   Clear
10:35 PM 50.0 °F 50.0 °F 100% 29.99 in 10.0 mi Calm Calm - N/A   Clear
10:55 PM 50.0 °F 50.0 °F 100% 29.99 in 10.0 mi Calm Calm - N/A   Clear
11:15 PM 50.0 °F 50.0 °F 100% 30.00 in 10.0 mi SSW 4.6 mph - N/A   Clear
11:35 PM 50.0 °F 50.0 °F 100% 30.00 in 10.0 mi Calm Calm - N/A   Clear
11:55 PM 50.0 °F 50.0 °F 100% 29.99 in 10.0 mi Calm Calm - N/A   Clear